Regional Weather Roundup
Issued by NWS

Home | Current Version | Previous Version | Graphics & Text | Print | Product List | Glossary On
Versions: 1 2 3 4 5 6 7 8 9 10 11 12 13 14 15 16 17 18 19 20 21 22 23 24 25 26 27 28 29 30 31 32 33 34 35 36 37 38 39 40 41 42 43 44 45 46 47 48 49 50
000
ASUS45 KSLC 300710
RWRUT

UTAH REGIONAL WEATHER ROUNDUP
NATIONAL WEATHER SERVICE SALT LAKE CITY UT
100 AM MDT SAT AUG 30 2014

UTZ001>011-023>025-300800-

NORTHERN UTAH

CITY           SKY/WX    TMP DP  RH WIND       PRES   REMARKS
HILL AFB       PTCLDY    71  42  34 SE15      29.96F
LOGAN          CLEAR     63  53  70 NE3       29.95F
OGDEN          PTCLDY    73  40  30 S9        29.92F
PROVO AIRPORT  MOCLDY    72  45  37 W3        29.99F
SALT LAKE CITY MOCLDY    75  41  29 S12       29.92F
VERNAL         CLEAR     57  46  66 N3        30.12R
WENDOVER       MOCLDY    73  36  25 W6        29.91S
HEBER CITY     MOCLDY    57  46  67 SW3       30.10F
WEST JORDAN    CLEAR     72  50  46 E5        29.97F

$$

UTZ012>022-026-027-300800-

SOUTHERN UTAH

CITY           SKY/WX    TMP DP  RH WIND       PRES   REMARKS
BRYCE CANYON   PTCLDY    47  42  83 CALM      30.29S
CEDAR CITY     PTCLDY    67  34  29 S6        30.09F
MILFORD        CLEAR     71  34  25 SW12      30.03S
MOAB/CYNLANDS  CLEAR     72  40  31 E6        30.03S
PRICE          MOCLDY    65  43  44 NE5       30.14F
ST GEORGE      PTSUNNY   79  39  24 E9        29.91S

$$

REGIONAL REPORTS     COLORADO/ARIZONA

CITY           SKY/WX    TMP DP  RH WIND       PRES   REMARKS
CRAIG, CO      CLEAR     51  48  89 SE3       30.18F
GRAND JUNCTION PTCLDY    61  51  70 SE9       30.09S
RIFLE          CLEAR     57  49  74 E3        30.17S
MONTROSE       PTCLDY    61  45  55 SE13      30.19F
CORTEZ         CLEAR     54  45  71 NE6       30.19R
PAGE, AZ       CLEAR     77  29  17 SW6       30.02S
GRAND CANYON     N/A    N/A N/A N/A MISG        N/A
KINGMAN        CLEAR     75  33  21 SE9       29.95F
FLAGSTAFF      CLEAR     50  43  77 CALM      30.27F

$$

REGIONAL REPORTS    NEVADA/IDAHO/WYOMING

CITY           SKY/WX    TMP DP  RH WIND       PRES   REMARKS
LAS VEGAS, NV  MOCLDY    90  30  11 S10       29.77F
ELY            PTCLDY    60  33  36 S12       30.11F
ELKO           PTCLDY    61  38  42 S5        30.00R
POCATELLO, ID  CLEAR     66  45  46 SE5       29.94F
BURLEY         MOCLDY    61  52  72 CALM      29.88F
EVANSTON, WY   MOCLDY    57  40  52 S10       30.17F
ROCK SPRINGS   PTCLDY    62  35  36 SW12      30.15F

$$


USA.gov is the U.S. government's official web portal to all federal, state and local government web resources and services.